TimeCDT,TemperatureF,Dew PointF,Humidity,Sea Level PressureIn,VisibilityMPH,Wind Direction,Wind SpeedMPH,Gust SpeedMPH,PrecipitationIn,Events,Conditions,WindDirDegrees,DateUTC
12:03 AM,32.0,28.4,87,29.49,1.0,NNW,18.4,27.6,0.00,Snow,Light Snow,330,2013-04-19 05:03:00
12:53 AM,32.0,28.9,88,29.51,1.5,NNW,17.3,26.5,0.00,Snow,Light Snow,330,2013-04-19 05:53:00
1:53 AM,32.0,28.0,85,29.51,1.5,NW,18.4,-,0.00,Snow,Light Snow,320,2013-04-19 06:53:00
2:38 AM,32.0,28.4,87,29.48,1.8,NW,18.4,25.3,0.00,Snow,Light Snow,320,2013-04-19 07:38:00
2:53 AM,32.0,28.0,85,29.50,2.0,NNW,17.3,31.1,0.00,Snow,Light Snow,330,2013-04-19 07:53:00
3:10 AM,32.0,28.4,87,29.48,2.5,NNW,17.3,28.8,0.00,Snow,Light Snow,330,2013-04-19 08:10:00
3:42 AM,32.0,28.4,87,29.49,1.8,NW,18.4,26.5,0.00,Snow,Light Snow,320,2013-04-19 08:42:00
3:53 AM,32.0,28.0,85,29.52,1.8,NW,16.1,-,0.00,Snow,Light Snow,320,2013-04-19 08:53:00
3:58 AM,32.0,28.4,87,29.49,2.0,NW,15.0,23.0,0.00,Snow,Light Snow,310,2013-04-19 08:58:00
4:29 AM,30.2,28.4,93,29.50,3.0,NW,16.1,26.5,0.00,Snow,Light Snow,320,2013-04-19 09:29:00
4:53 AM,30.9,27.0,85,29.53,3.0,NNW,18.4,28.8,0.00,Snow,Light Snow,330,2013-04-19 09:53:00
4:58 AM,30.2,26.6,86,29.50,2.5,NNW,18.4,26.5,0.00,Snow,Light Snow,330,2013-04-19 09:58:00
5:10 AM,30.2,26.6,86,29.50,2.5,NW,19.6,26.5,0.00,Snow,Light Snow,320,2013-04-19 10:10:00
5:22 AM,30.2,26.6,86,29.51,3.0,NW,15.0,31.1,0.00,Snow,Light Snow,320,2013-04-19 10:22:00
5:24 AM,30.2,26.6,86,29.51,3.0,NW,17.3,24.2,0.00,Snow,Light Snow,320,2013-04-19 10:24:00
5:30 AM,30.2,26.6,86,29.51,2.5,NW,20.7,27.6,0.00,Snow,Light Snow,320,2013-04-19 10:30:00
5:49 AM,30.2,26.6,86,29.52,2.5,NW,13.8,25.3,0.00,Snow,Light Snow,320,2013-04-19 10:49:00
5:53 AM,30.9,27.0,85,29.55,3.0,NW,17.3,25.3,0.00,Snow,Light Snow,320,2013-04-19 10:53:00
6:45 AM,30.2,26.6,86,29.54,8.0,NNW,15.0,25.3,0.00,,Light Ice Pellets,330,2013-04-19 11:45:00
6:53 AM,30.9,26.1,82,29.57,10.0,NNW,15.0,26.5,0.00,,Light Ice Pellets,330,2013-04-19 11:53:00
7:26 AM,30.2,24.8,80,29.55,5.0,NNW,16.1,24.2,0.00,Snow,Light Snow,330,2013-04-19 12:26:00
7:53 AM,30.9,25.0,79,29.59,10.0,NW,19.6,27.6,0.00,,Light Ice Pellets,320,2013-04-19 12:53:00
8:53 AM,30.9,25.0,79,29.61,3.0,NNW,17.3,23.0,0.00,Snow,Light Snow,330,2013-04-19 13:53:00
9:17 AM,30.2,24.8,80,29.59,4.0,NNW,17.3,29.9,0.00,Snow,Light Snow,330,2013-04-19 14:17:00
9:27 AM,30.2,24.8,80,29.59,2.0,NNW,16.1,26.5,0.00,Snow,Light Snow,330,2013-04-19 14:27:00
9:30 AM,30.2,24.8,80,29.59,1.8,NNW,12.7,23.0,0.00,Snow,Light Snow,330,2013-04-19 14:30:00
9:37 AM,30.2,24.8,80,29.59,2.5,NW,16.1,21.9,0.00,Snow,Light Snow,320,2013-04-19 14:37:00
9:43 AM,30.2,24.8,80,29.59,4.0,NW,19.6,24.2,0.00,Snow,Light Snow,320,2013-04-19 14:43:00
9:53 AM,30.9,24.1,76,29.63,9.0,NW,16.1,27.6,0.00,,Light Ice Pellets,320,2013-04-19 14:53:00
10:53 AM,33.1,24.1,70,29.65,10.0,NNW,19.6,31.1,0.00,,Light Ice Pellets,330,2013-04-19 15:53:00
11:40 AM,32.0,24.8,75,29.64,5.0,NW,18.4,27.6,0.00,Snow,Light Snow,320,2013-04-19 16:40:00
11:53 AM,33.1,23.0,66,29.68,10.0,NNW,19.6,28.8,0.00,,Light Ice Pellets,330,2013-04-19 16:53:00
12:21 PM,32.0,21.2,64,29.67,10.0,NNW,19.6,26.5,0.00,,Light Ice Pellets,330,2013-04-19 17:21:00
12:53 PM,34.0,21.9,61,29.71,10.0,NW,19.6,28.8,0.00,Rain,Light Ice Pellets,310,2013-04-19 17:53:00
1:53 PM,36.0,21.9,57,29.73,10.0,NNW,17.3,27.6,0.00,,Light Ice Pellets,330,2013-04-19 18:53:00
2:53 PM,36.0,19.9,52,29.76,10.0,NNW,20.7,28.8,0.00,,Light Ice Pellets,340,2013-04-19 19:53:00
3:53 PM,37.0,19.9,50,29.78,10.0,NNW,25.3,34.5,0.00,,Light Ice Pellets,330,2013-04-19 20:53:00
4:53 PM,37.9,19.9,48,29.81,10.0,NNW,19.6,27.6,0.00,,Light Ice Pellets,330,2013-04-19 21:53:00
5:53 PM,37.9,21.0,51,29.85,10.0,NW,12.7,-,0.00,,Light Ice Pellets,310,2013-04-19 22:53:00
6:53 PM,37.9,19.0,47,29.88,10.0,NW,15.0,21.9,0.00,,Light Ice Pellets,320,2013-04-19 23:53:00
7:53 PM,36.0,19.9,52,29.90,10.0,NNW,4.6,-,0.00,,Light Ice Pellets,330,2013-04-20 00:53:00
8:53 PM,33.1,19.9,59,29.94,10.0,WNW,9.2,-,0.00,,Light Ice Pellets,290,2013-04-20 01:53:00
9:53 PM,33.1,19.0,56,29.97,10.0,WNW,11.5,-,0.00,,Light Ice Pellets,300,2013-04-20 02:53:00
10:53 PM,30.9,18.0,59,29.99,10.0,WNW,10.4,-,0.00,,Light Ice Pellets,300,2013-04-20 03:53:00
11:53 PM,30.0,17.1,59,30.01,10.0,NW,8.1,-,0.00,,Light Ice Pellets,310,2013-04-20 04:53:00